Amateur radio
NORAD ID: 22825
Int'l Code: 1993-061C
Perigee: 794.1 km
Apogee: 806.5 km
Inclination: 98.6 °
Period: 100.7 minutes
Semi major axis: 7171 km
Launch date: September 26, 1993
Source: South Korea (SKOR)
Comments: EYESAT 1, an American microsatellite was one of the six microsatellites that were launched along with SPOT 3 (93-061A). It was a relay satellite to acquire and relay environmental data from ground-based stations and certain industrial facilities.
Two Line Element Set (TLE):
1 22825U 93061C 13137.82714912 .00000133 00000-0 69284-4 0 3856
2 22825 098.6164 082.1758 0008638 025.9085 027.3169 14.29560670 24295
Source: AFSPC
NASA's NSSDC Master Catalog entry for EYESAT-1